Zurück zum Katalog

BD-18

AktivNavigationMEO
NORAD 40748·PAYLOAD·🇨🇳 China

Gestartet Jul 25, 2015 von Xichang Satellite Launch Center

Loading…

Nächste Überflüge (nächste 24 Stunden)

TLE

AktuellSource: Space-Track

Epoche: Sep 14, 2026, 10:58 UTC

1 40748U 15037A   26257.45702616 -.00000060  00000-0  00000-0 0  9999
2 40748  54.7885 298.9657 0011759 260.3060  99.6210  1.86231963 75781

Verfolge BD-18 in Echtzeit mit AllMySat

Download on the App Store